TimeCST,TemperatureF,Dew PointF,Humidity,Sea Level PressureIn,VisibilityMPH,Wind Direction,Wind SpeedMPH,Gust SpeedMPH,PrecipitationIn,Events,Conditions,WindDirDegrees,DateUTC
12:00 AM,78,76,91,29.89,12,Calm,Calm,,,,Partly Cloudy,,2013-05-29 06:00:00
3:00 AM,75,74,95,29.83,12,Calm,Calm,,,,Mostly Cloudy,,2013-05-29 09:00:00
5:00 AM,75.2,73.4,94,29.80,6.2,Calm,Calm,-,N/A,,Mostly Cloudy,0,2013-05-29 11:00:00
6:00 AM,76,75,94,29.83,12,Calm,Calm,,,Rain,Light Rain Showers,,2013-05-29 12:00:00
6:00 AM,75.2,75.2,100,29.80,6.2,Calm,Calm,-,N/A,,Mostly Cloudy,0,2013-05-29 12:00:00
7:00 AM,77.0,75.2,94,29.83,6.2,Calm,Calm,-,N/A,,Mostly Cloudy,0,2013-05-29 13:00:00
8:00 AM,80.6,77.0,89,29.83,6.2,Calm,Calm,-,N/A,,Mostly Cloudy,0,2013-05-29 14:00:00
9:00 AM,83,76,74,29.87,12,ESE,5.8,,,,Partly Cloudy,110,2013-05-29 15:00:00
9:00 AM,84.2,77.0,79,29.86,6.2,ESE,5.8,-,N/A,,Mostly Cloudy,110,2013-05-29 15:00:00
10:00 AM,84.2,75.2,74,29.87,6.2,SE,6.9,-,N/A,,Mostly Cloudy,140,2013-05-29 16:00:00
11:00 AM,84.2,77.0,79,29.86,6.2,SE,8.1,-,N/A,,Mostly Cloudy,140,2013-05-29 17:00:00
12:00 PM,87,79,71,29.86,12,SE,8.1,,,,Mostly Cloudy,140,2013-05-29 18:00:00
12:00 PM,87.8,78.8,75,29.85,6.2,SE,8.1,-,N/A,,Mostly Cloudy,140,2013-05-29 18:00:00
1:00 PM,86.0,77.0,74,29.84,6.2,SE,9.2,-,N/A,,Mostly Cloudy,140,2013-05-29 19:00:00
2:00 PM,84.2,75.2,74,29.83,6.2,SE,9.2,-,N/A,,Mostly Cloudy,130,2013-05-29 20:00:00
3:00 PM,84,77,74,29.81,12,ESE,8.1,,,,Mostly Cloudy,110,2013-05-29 21:00:00
3:00 PM,84.2,77.0,79,29.81,6.2,ESE,8.1,-,N/A,,Mostly Cloudy,110,2013-05-29 21:00:00
4:00 PM,84.2,77.0,79,29.80,6.2,SE,8.1,-,N/A,Rain,Light Rain Showers,140,2013-05-29 22:00:00
5:00 PM,84.2,77.0,79,29.81,6.2,ESE,8.1,-,N/A,,Mostly Cloudy,110,2013-05-29 23:00:00
6:00 PM,82,76,79,29.81,9,ESE,6.9,,,,Partly Cloudy,110,2013-05-30 00:00:00
6:00 PM,82.4,77.0,84,29.80,6.2,ESE,6.9,-,N/A,,Mostly Cloudy,110,2013-05-30 00:00:00
9:00 PM,82,77,80,29.86,12,East,8.1,,,,Partly Cloudy,100,2013-05-30 03:00:00